"TOA5","AWS1","CR1000","7964","CR1000.Std.14","CPU:AWS1_114.CR1","64363","TBL110"
"TIMESTAMP","RECORD","Wind_spd_WVc(1)","Wind_spd_WVc(2)","Air_Temp_Avg","Humidity_Avg","SW_upper_Wm2_Avg","Rain_Tot","Press_Avg","Issui_Tot","Depth_cm","SR50A_Raw","Quality","Ground_Temp_Avg(1)","Ground_Temp_Avg(2)","SW_lower_Wm2_Avg","Albedo_Avg","SWC_per(1)","SWC_per(2)","Period(1)","Period(2)"
"TS","RN","","","","","","","","","","","","","","","","","","",""
"","","WVc","WVc","Avg","Avg","Avg","Tot","Avg","Tot","Smp","Smp","Smp","Avg","Avg","Avg","Avg","Smp","Smp","Smp","Smp"
"2016-09-21 00:00:00",254077,0.194,307.6,13.13,100,0.003930784,0,865.3552,0,-2.858,3.134,213,16.14,17.53,0.4396371,0.032,51.99,59.5,33.79,35.56
"2016-09-21 00:10:00",254078,0,0,13.16,100,0,0,865.3509,0,-2.904,3.135,212,16.12,17.53,0.2690766,0,51.99,59.44,33.79,35.55
"2016-09-21 00:20:00",254079,0.27,220.1,13.11,100,0,0,865.1108,0,-1.264,3.119,240,16.12,17.54,0.2842261,0,51.94,59.44,33.77,35.55
"2016-09-21 00:30:00",254080,0.792,200.1,13.01,100,0,0,864.8812,0,-1.111,3.118,233,16.14,17.54,0.4320165,0,51.94,59.38,33.77,35.54
"2016-09-21 00:40:00",254081,0.926,198.3,12.97,100,0,0,864.877,0,-1.008,3.117,225,16.14,17.53,0.4282226,0,51.88,59.32,33.76,35.52
"2016-09-21 00:50:00",254082,0.761,203,12.85,100,0,0,864.7128,0,-0.63,3.114,223,16.15,17.48,0.337275,0,51.88,59.32,33.76,35.52
"2016-09-21 01:00:00",254083,0.381,226.7,12.82,100,0,0,864.8749,0,-0.859,3.116,206,16.15,17.45,0.4661238,0,51.77,59.26,33.73,35.51
"2016-09-21 01:10:00",254084,0.07,75.57,12.75,100,0,0,865.0876,0,-0.82,3.117,222,16.15,17.46,0.4509713,0,51.71,59.32,33.72,35.52
"2016-09-21 01:20:00",254085,0.183,151.9,12.64,100,0,0,865.214,0,-0.615,3.115,227,16.15,17.48,0.4547662,0,51.71,59.32,33.72,35.52
"2016-09-21 01:30:00",254086,0.153,111.6,12.65,100,0,0,865.3825,0,-0.822,3.117,206,16.14,17.5,0.4812943,0,51.71,59.26,33.72,35.51
"2016-09-21 01:40:00",254087,0.097,141.1,12.69,100,0,0,865.3846,0,-0.511,3.113,222,16.16,17.49,0.5798397,0,51.66,59.26,33.7,35.51
"2016-09-21 01:50:00",254088,0.217,209.7,12.98,100,0.2161771,0,865.5068,0,-0.91,3.116,206,16.15,17.44,0.7427946,1.952,51.66,59.26,33.7,35.51
"2016-09-21 02:00:00",254089,0.202,229.7,12.98,100,0.1179125,0,865.57,0,-0.699,3.113,206,16.14,17.43,0.3562288,0.579,51.66,59.2,33.7,35.5
"2016-09-21 02:10:00",254090,0.216,232.1,13.07,100,0.0589565,0,865.7553,0,-0.492,3.111,216,16.13,17.42,0.2501186,0.434,51.66,59.2,33.7,35.5
"2016-09-21 02:20:00",254091,0.034,37.73,13.15,100,0,0,865.8901,0,-0.183,3.108,232,16.14,17.42,0.1440051,0,51.6,59.14,33.69,35.48
"2016-09-21 02:30:00",254092,0.017,15.4,13.17,100,0,0,865.968,0,-0.23,3.108,231,16.14,17.44,0.007579141,0,51.6,59.14,33.69,35.48
"2016-09-21 02:40:00",254093,0.063,237.9,13.13,100,0,0,866.1428,0,-0.285,3.109,227,16.13,17.45,0.007579098,0,51.6,59.14,33.69,35.48
"2016-09-21 02:50:00",254094,0,0,13.17,100,0,0,866.1702,0,-0.332,3.109,227,16.09,17.44,0.0341059,0,51.55,59.14,33.68,35.48
"2016-09-21 03:00:00",254095,0.018,216.7,13.18,100,0,0,866.3661,0,-0.284,3.109,227,16.1,17.45,0.05305362,0,51.55,59.08,33.68,35.47
"2016-09-21 03:10:00",254096,0,0,13.09,100,0,0,866.3956,0,-0.284,3.109,226,16.11,17.45,0.2235831,0,51.49,59.08,33.66,35.47
"2016-09-21 03:20:00",254097,0,0,13.06,100,0,0,866.3956,0,-0.543,3.112,206,16.09,17.44,0.2273727,0,51.44,59.08,33.65,35.47
"2016-09-21 03:30:00",254098,0.009,0.097,13,100,0,0,866.3956,0,-0.549,3.113,204,16.08,17.42,0.2311622,0,51.49,59.03,33.66,35.45
"2016-09-21 03:40:00",254099,0.012,2.775,12.93,100,0,0,866.3956,0,-0.393,3.111,205,16.08,17.39,0.3259008,0,51.44,59.03,33.65,35.45
"2016-09-21 03:50:00",254100,0.184,307.2,12.97,100,0,0,866.4946,0,-0.29,3.11,226,16.08,17.37,0.4547453,0,51.44,59.03,33.65,35.45
"2016-09-21 04:00:00",254101,0.12,334.9,12.93,100,0,0,866.6462,0,-0.495,3.112,206,16.09,17.36,0.5343258,0,51.44,59.03,33.65,35.45
"2016-09-21 04:10:00",254102,0,0,12.92,100,0,0,866.7831,0,-0.525,3.113,210,16.09,17.36,0.4547453,0,51.38,59.03,33.64,35.45
"2016-09-21 04:20:00",254103,0,0,12.83,100,0,0,866.9032,0,-0.603,3.114,204,16.1,17.35,0.1477922,0,51.38,58.97,33.64,35.44
"2016-09-21 04:30:00",254104,0,0,12.83,100,0,0,867.1117,0,-0.525,3.113,204,16.1,17.34,0.1212654,0,51.38,58.97,33.64,35.44
"2016-09-21 04:40:00",254105,0,0,12.83,100,0,0,867.1854,0,-0.525,3.113,204,16.11,17.32,0.07200135,0,51.38,58.97,33.64,35.44
"2016-09-21 04:50:00",254106,0,0,12.81,100,0,0,867.4003,0,-0.453,3.113,204,16.14,17.31,0.03789544,0,51.38,58.97,33.64,35.44
"2016-09-21 05:00:00",254107,0.003,81.6,12.84,100,0,0,867.5667,0,-0.549,3.113,204,16.14,17.33,0.1023177,0,51.33,58.97,33.62,35.44
"2016-09-21 05:10:00",254108,0.02,87.4,12.84,100,0,0,867.5961,0,-0.525,3.113,204,16.13,17.35,0.2197936,0,51.38,58.91,33.64,35.43
"2016-09-21 05:20:00",254109,0.281,72.84,12.87,100,0,0,867.653,0,-0.417,3.111,203,16.13,17.35,0.299374,0,51.27,58.91,33.61,35.43
"2016-09-21 05:30:00",254110,0.657,76.08,12.99,100,0.1414903,0,867.6593,0,-0.393,3.111,215,16.14,17.36,0.4547453,0.396,51.27,58.91,33.61,35.43
"2016-09-21 05:40:00",254111,0.411,97.5,12.94,100,1.403112,0,867.6761,0,-0.393,3.111,223,16.14,17.35,0.4547453,0.371,51.27,58.85,33.61,35.41
"2016-09-21 05:50:00",254112,0.137,192.6,12.96,100,5.129024,0,867.7773,0,0.324,3.104,234,16.14,17.3,0.8374893,0.163,51.33,58.85,33.62,35.41
"2016-09-21 06:00:00",254113,0,0,12.97,100,12.48652,0,867.7352,0,-0.393,3.111,213,16.14,17.29,1.784876,0.143,51.27,58.85,33.61,35.41
"2016-09-21 06:10:00",254114,0,0,13.07,100,26.95391,0,867.9205,0,-0.182,3.108,235,16.14,17.28,3.857756,0.144,51.27,58.79,33.61,35.4
"2016-09-21 06:20:00",254115,0.005,336.9,13.22,100,35.01099,0,868.1332,0,-0.309,3.109,216,16.14,17.28,4.65735,0.133,51.21,58.73,33.6,35.39
"2016-09-21 06:30:00",254116,0.039,321.7,13.25,100,36.77962,0,868.2512,0,-0.387,3.11,214,16.12,17.28,4.73693,0.129,51.21,58.73,33.6,35.39
"2016-09-21 06:40:00",254117,0.008,38.49,13.19,100,44.15678,0,868.4176,0,-0.387,3.11,213,16.09,17.28,5.347047,0.121,51.21,58.73,33.6,35.39
"2016-09-21 06:50:00",254118,0.006,51.38,13.28,100,57.0717,0,868.5102,0,-0.303,3.108,218,16.08,17.28,6.919708,0.121,51.21,58.73,33.6,35.39
"2016-09-21 07:00:00",254119,0,0,13.45,100,74.38068,0,868.6914,0,-0.32,3.107,204,16.07,17.28,9.291963,0.125,51.21,58.67,33.6,35.37
"2016-09-21 07:10:00",254120,0,0,13.71,100,95.38806,0,868.8978,0,-0.158,3.104,219,16.06,17.28,11.9598,0.125,51.16,58.67,33.58,35.37
"2016-09-21 07:20:00",254121,0.012,17.56,13.84,100,100.6271,0,869.0052,0,-0.315,3.106,210,16.1,17.28,12.41834,0.123,51.16,58.73,33.58,35.39
"2016-09-21 07:30:00",254122,0.294,4.068,13.7,100,117.3309,0,869.18,0,-0.267,3.106,216,16.13,17.28,14.97628,0.128,51.16,58.67,33.58,35.37
"2016-09-21 07:40:00",254123,0.189,10.04,13.68,100,131.2637,0,869.3022,0,-0.007,3.103,220,16.19,17.28,16.80663,0.128,51.16,58.61,33.58,35.36
"2016-09-21 07:50:00",254124,0.008,201.7,14.13,100,151.8349,0,869.4201,0,0.067,3.099,243,16.23,17.28,18.9932,0.125,51.16,58.67,33.58,35.37
"2016-09-21 08:00:00",254125,0.327,21.32,14.17,100,158.5949,0,869.4244,0,1.749,3.084,387,16.21,17.28,20.12627,0.127,51.1,58.61,33.57,35.36
"2016-09-21 08:10:00",254126,0.173,23.84,14.07,100,158.2334,0,869.4327,0,0.218,3.098,228,16.19,17.28,20.22859,0.128,51.1,58.61,33.57,35.36
"2016-09-21 08:20:00",254127,0.09,12.1,14.43,99.8,181.0251,0,869.5023,0,0.176,3.097,258,16.16,17.28,23.39286,0.129,51.16,58.61,33.58,35.36
"2016-09-21 08:30:00",254128,0.002,123.7,14.75,96.5,224.5727,0,869.5696,0,-0.268,3.099,236,16.16,17.26,28.67169,0.128,51.1,58.61,33.57,35.36
"2016-09-21 08:40:00",254129,0.068,87.3,15.16,97.9,185.9104,0,869.6687,0,0.148,3.094,230,16.23,17.22,22.88506,0.123,51.1,58.56,33.57,35.35
"2016-09-21 08:50:00",254130,0.225,38.84,15.09,98.4,180.7735,0,869.6834,0,-0.522,3.101,221,16.2,17.21,23.31707,0.129,51.05,58.56,33.56,35.35
"2016-09-21 09:00:00",254131,0.278,1.315,15.07,100,249.1723,0,869.774,0,-0.152,3.096,227,16.21,17.23,33.68526,0.135,51.05,58.5,33.56,35.33
"2016-09-21 09:10:00",254132,0.149,18.24,15.44,100,318.9192,0,869.9151,0,0.091,3.092,214,16.24,17.2,43.22733,0.135,51.1,58.5,33.57,35.33
"2016-09-21 09:20:00",254133,0.449,26.66,15.32,99.5,224.9775,0,869.934,0,0.197,3.094,215,16.26,17.19,29.38034,0.13,51.05,58.5,33.56,35.33
"2016-09-21 09:30:00",254134,0.41,5.808,14.85,100,194.1994,0,869.934,0,0.207,3.096,209,16.24,17.23,25.93564,0.133,50.99,58.5,33.54,35.33
"2016-09-21 09:40:00",254135,0.372,10.94,14.59,100,223.2049,0,870.132,0,0.334,3.095,251,16.29,17.25,30.19888,0.135,50.99,58.44,33.54,35.32
"2016-09-21 09:50:00",254136,0.504,8.62,14.62,100,260.071,0,870.1826,0,0.286,3.095,227,16.32,17.22,34.88654,0.134,50.99,58.44,33.54,35.32
"2016-09-21 10:00:00",254137,0.309,41.59,15.22,100,426.6484,0,870.1868,0,0.203,3.093,201,16.37,17.22,56.46042,0.133,50.99,58.44,33.54,35.32
"2016-09-21 10:10:00",254138,0.79,8.04,15.03,100,245.2617,0,870.1868,0,0.299,3.093,204,16.41,17.23,33.09409,0.135,50.99,58.44,33.54,35.32
"2016-09-21 10:20:00",254139,0.455,17.03,15.31,100,265.1254,0,870.1868,0,0.519,3.089,260,16.42,17.24,36.26594,0.137,50.94,58.38,33.53,35.31
"2016-09-21 10:30:00",254140,0.314,24.5,15.53,100,286.9109,0,870.21,0,0.478,3.088,220,16.5,17.22,38.67609,0.135,50.94,58.38,33.53,35.31
"2016-09-21 10:40:00",254141,0.293,7.957,15.38,100,261.592,0,870.2437,0,-1.639,3.11,243,16.49,17.23,35.04192,0.134,50.94,58.32,33.53,35.29
"2016-09-21 10:50:00",254142,0.262,4.65,15.4,100,249.2077,0,870.4185,0
"2016-09-21 10:50:00",254142,0.262,4.65,15.4,100,249.2077,0,870.4185,0,-2.486,3.118,227,16.5,17.21,32.57492,0.131,50.94,58.32,33.53,35.29
"2016-09-21 11:00:00",254143,0.119,4.123,15.66,100,202.3548,0,870.408,0,-1.983,3.111,237,16.53,17.21,26.23123,0.129,50.94,58.32,33.53,35.29
"2016-09-21 11:10:00",254144,0.169,40.16,15.76,100,132.435,0,870.2773,0,-0.036,3.093,200,16.58,17.19,16.62094,0.126,50.94,58.26,33.53,35.28
"2016-09-21 11:20:00",254145,0.253,61.19,15.67,100,153.6388,0,870.3743,0,0.067,3.092,205,16.63,17.19,19.87995,0.129,50.88,58.26,33.52,35.28
"2016-09-21 11:30:00",254146,0.089,63.51,15.75,100,205.5068,0,870.2711,0,-0.021,3.091,208,16.65,17.18,26.58744,0.129,50.88,58.26,33.52,35.28
"2016-09-21 11:40:00",254147,0.002,234.1,16.03,100,94.11072,0,870.3932,0,-0.433,3.095,202,16.65,17.18,10.75094,0.113,50.88,58.21,33.52,35.26
"2016-09-21 11:50:00",254148,0.055,38.25,15.96,100,199.2813,0,870.3848,0,-0.124,3.092,236,16.75,17.2,25.95838,0.129,50.83,58.21,33.5,35.26
"2016-09-21 12:00:00",254149,0.168,129.4,16.14,100,170.5116,0,870.4311,0,-0.268,3.092,222,16.77,17.18,21.52461,0.126,50.83,58.21,33.5,35.26
"2016-09-21 12:10:00",254150,0.17,96.9,16.27,100,147.9871,0,870.3363,0,-0.243,3.092,222,16.83,17.18,18.1216,0.122,50.83,58.21,33.5,35.26
"2016-09-21 12:20:00",254151,0.099,318.4,16.32,100,203.1133,0,870.2879,0,-0.212,3.091,204,16.84,17.18,24.82152,0.121,50.83,58.15,33.5,35.25
"2016-09-21 12:30:00",254152,0.073,16.31,16.4,100,157.3137,0,870.2057,0,-1.684,3.106,206,16.84,17.19,18.02686,0.113,50.83,58.15,33.5,35.25
"2016-09-21 12:40:00",254153,0.178,3.183,16.15,100,154.4092,0,870.1868,0,-1.304,3.103,212,16.87,17.19,18.60287,0.118,50.83,58.15,33.5,35.25
"2016-09-21 12:50:00",254154,0.147,18.18,16.21,100,231.8673,0,870.1868,0,0.295,3.087,297,16.92,17.19,28.90664,0.125,50.83,58.09,33.5,35.24
"2016-09-21 13:00:00",254155,0.17,13.13,16.39,100,285.6454,0,870.1868,0,-0.466,3.093,210,16.9,17.19,35.97414,0.125,50.83,58.09,33.5,35.24
"2016-09-21 13:10:00",254156,0.102,35.57,16.61,100,231.8791,0,870.1868,0,-0.142,3.088,228,16.98,17.19,27.45146,0.118,50.77,58.09,33.49,35.24
"2016-09-21 13:20:00",254157,0.025,201.9,16.6,100,69.31454,0,870.1847,0,-1.187,3.1,227,16.97,17.2,5.835898,0.07,50.77,58.03,33.49,35.22
"2016-09-21 13:30:00",254158,0.239,340.5,16.18,100,66.6498,0.5,870.1762,0,-2.593,3.116,244,17,17.19,6.593808,0.085,50.77,58.03,33.49,35.22
"2016-09-21 13:40:00",254159,0.236,18.08,15.95,100,112.4691,0,870.1826,0,-0.171,3.092,200,17.09,17.19,12.88445,0.113,50.77,58.03,33.49,35.22
"2016-09-21 13:50:00",254160,0.057,35.67,15.99,100,68.41843,0.5,870.1868,0,-0.077,3.092,231,17.1,17.19,7.336558,0.106,50.77,58.03,33.49,35.22
"2016-09-21 14:00:00",254161,0.107,12.02,16.01,100,144.6699,0,870.1994,0,0.683,3.083,218,17.11,17.19,17.79191,0.123,50.72,57.97,33.47,35.21
"2016-09-21 14:10:00",254162,0.056,56.23,16.14,100,113.6364,0,870.1931,0,0.453,3.085,214,17.15,17.21,12.89203,0.113,50.72,57.97,33.47,35.21
"2016-09-21 14:20:00",254163,0.07,43.49,16.13,100,59.83076,0,870.2205,0,-2.799,3.118,209,17.19,17.24,6.051902,0.099,50.77,58.03,33.49,35.22
"2016-09-21 14:30:00",254164,0.047,55.72,16.08,100,86.71391,0,870.3848,0,-2.072,3.11,232,17.18,17.26,10.02713,0.115,50.72,58.03,33.47,35.22
"2016-09-21 14:40:00",254165,0.081,126.8,16.08,100,80.39795,0,870.3827,0,-1.098,3.101,334,17.2,17.27,9.5686,0.116,50.72,58.03,33.47,35.22
"2016-09-21 14:50:00",254166,0.177,52.58,16.1,100,136.9783,0,870.389,0,-0.504,3.095,387,17.25,17.28,16.88621,0.123,50.72,57.97,33.47,35.21
"2016-09-21 15:00:00",254167,0.105,33.61,16.05,100,101.6372,0,870.3911,0,-2.696,3.117,246,17.28,17.28,12.25539,0.12,50.77,57.97,33.49,35.21
"2016-09-21 15:10:00",254168,0.04,351.6,16.04,100,118.6436,0,870.4395,0,-0.892,3.099,250,17.26,17.28,14.43437,0.122,50.77,57.97,33.49,35.21
"2016-09-21 15:20:00",254169,0.092,1.445,16.04,100,70.45039,0,870.4395,0,0.699,3.084,235,17.33,17.28,7.927727,0.111,50.77,57.97,33.49,35.21
"2016-09-21 15:30:00",254170,0.06,85.6,16.03,100,88.78125,0,870.4395,0,0.904,3.082,220,17.36,17.28,10.81536,0.119,50.77,57.97,33.49,35.21
"2016-09-21 15:40:00",254171,0.306,31.41,15.94,100,94.09106,0,870.4395,0,0.406,3.088,218,17.36,17.29,11.24358,0.118,50.77,57.97,33.49,35.21
"2016-09-21 15:50:00",254172,0.194,26.92,15.81,100,95.72214,0,870.4395,0,0.644,3.085,237,17.35,17.33,11.5619,0.12,50.72,57.97,33.47,35.21
"2016-09-21 16:00:00",254173,0.008,33.26,15.96,100,68.37521,0,870.4733,0,0.446,3.086,241,17.37,17.34,7.563931,0.109,50.72,57.97,33.47,35.21
"2016-09-21 16:10:00",254174,0.277,26.52,15.87,100,47.46215,0,870.4733,0,0.739,3.085,227,17.39,17.33,4.816511,0.101,50.72,57.97,33.47,35.21
"2016-09-21 16:20:00",254175,0.016,65.18,15.76,100,68.23764,0,870.5048,0,0.359,3.088,224,17.44,17.36,8.018676,0.117,50.72,57.97,33.47,35.21
"2016-09-21 16:30:00",254176,0,0,15.84,100,51.38064,0,870.6881,0,0.462,3.087,234,17.45,17.36,5.707054,0.11,50.72,57.97,33.47,35.21
"2016-09-21 16:40:00",254177,0.005,1.341,15.77,100,32.82576,0,870.6923,0,0.327,3.089,228,17.45,17.36,3.145322,0.095,50.72,57.97,33.47,35.21
"2016-09-21 16:50:00",254178,0.014,20.79,15.72,100,25.88487,0,870.6923,0,0.328,3.089,223,17.46,17.36,2.614785,0.1,50.72,57.97,33.47,35.21
"2016-09-21 17:00:00",254179,0.073,30.8,15.66,100,17.20286,0,870.7155,0,-0.035,3.093,213,17.53,17.36,1.489291,0.083,50.72,57.91,33.47,35.2
"2016-09-21 17:10:00",254180,0.011,30.39,15.63,100,6.925166,0,870.9387,0,-0.217,3.095,217,17.58,17.36,0.3334799,0.045,50.66,57.97,33.46,35.21
"2016-09-21 17:20:00",254181,0,0,15.65,100,6.091945,0,870.9451,0,-0.32,3.096,211,17.58,17.36,0.5002199,0.081,50.66,57.97,33.46,35.21
"2016-09-21 17:30:00",254182,0.011,331.6,15.5,100,7.369288,0,870.8419,0,-0.249,3.096,221,17.56,17.36,0.7730671,0.104,50.66,57.97,33.46,35.21
"2016-09-21 17:40:00",254183,0.02,50.54,15.49,100,5.349121,0,870.6965,0,-0.612,3.1,213,17.54,17.37,0.5646421,0.098,50.66,57.91,33.46,35.2
"2016-09-21 17:50:00",254184,0.021,12.33,15.38,100,1.528882,0,870.8292,0,-0.714,3.101,224,17.54,17.41,0.1629504,0.1,50.72,57.97,33.47,35.21
"2016-09-21 18:00:00",254185,0.004,1.131,15.31,100,0.07074516,0,870.9451,0,-0.642,3.101,222,17.54,17.44,0,0,50.66,57.91,33.46,35.2
"2016-09-21 18:10:00",254186,0.017,23.75,15.3,100,0,0,871.0419,0,-0.46,3.099,235,17.54,17.45,0.0341059,0,50.66,57.91,33.46,35.2
"2016-09-21 18:20:00",254187,0,0,15.25,100,0,0,870.9451,0,-0.413,3.099,235,17.54,17.44,0,0,50.66,57.91,33.46,35.2
"2016-09-21 18:30:00",254188,0,0,15.19,100,0,0,870.9514,0,0.101,3.094,280,17.54,17.44,0,0,50.61,57.91,33.45,35.2
"2016-09-21 18:40:00",254189,0,0,15.19,100,0,0,870.9492,0,-0.334,3.098,238,17.54,17.46,0.1781086,0,50.66,57.91,33.46,35.2
"2016-09-21 18:50:00",254190,0,0,15.26,100,0,0,871.1009,0,-0.54,3.1,214,17.54,17.47,0.2273727,0,50.61,57.86,33.45,35.18
"2016-09-21 19:00:00",254191,0,0,15.22,100,0,0.5,871.2147,0,0.148,3.094,205,17.54,17.46,0.2046354,0,50.61,57.86,33.45,35.18
"2016-09-21 19:10:00",254192,0,0,15.14,100,0,0,871.3516,0,-0.571,3.101,255,17.54,17.45,0.2273727,0,50.61,57.86,33.45,35.18
"2016-09-21 19:20:00",254193,0,0,15.15,100,0,0,871.4505,0,-0.769,3.102,210,17.54,17.45,0.1970563,0,50.61,57.86,33.45,35.18
"2016-09-21 19:30:00",254194,0.005,25.55,15.2,100,0,0,871.5032,0,-1.235,3.107,206,17.54,17.46,0.2273727,0,50.61,57.86,33.45,35.18
"2016-09-21 19:40:00",254195,0.062,49.95,15.1,100,0,0,871.6485,0,-0.238,3.098,204,17.54,17.47,0.208425,0,50.61,57.86,33.45,35.18
"2016-09-21 19:50:00",254196,0.066,71.82,15.06,100,0,1,871.7032,0,-0.42,3.1,219,17.54,17.53,0.1818981,0,50.61,57.86,33.45,35.18
"2016-09-21 20:00:00",254197,0,0,15.02,100,0,0.5,871.7032,0,0.655,3.09,227,17.54,17.54,0.09852815,0,50.61,57.86,33.45,35.18
"2016-09-21 20:10:00",254198,0.02,10.92,14.97,100,0,0.5,871.7665,0,-0.27,3.099,202,17.56,17.55,0.1629504,0,50.66,57.86,33.46,35.18
"2016-09-21 20:20:00",254199,0,0,15,100,0,0,871.9349,0,-1.091,3.107,201,17.57,17.59,0.2046354,0,50.77,57.86,33.49,35.18
"2016-09-21 20:30:00",254200,0,0,15.02,100,0,0,871.9496,0,-0.727,3.103,203,17.58,17.61,0.2122145,0,50.94,57.91,33.53,35.2
"2016-09-21 20:40:00",254201,0,0,14.98,100,0,0,871.9561,0,-0.372,3.1,204,17.59,17.6,0.1818981,0,50.99,57.97,33.54,35.21
"2016-09-21 20:50:00",254202,0.079,49.63,14.95,100,0,0.5,871.9539,0,-0.632,3.103,224,17.61,17.58,0.1629504,0,51.05,57.91,33.56,35.2
"2016-09-21 21:00:00",254203,0.045,47.53,14.91,100,0,0,871.7686,0,-1.146,3.108,209,17.61,17.58,0.1856877,0,51.05,58.03,33.56,35.22
"2016-09-21 21:10:00",254204,0,0,14.9,100,0,0,871.8318,0,-1.194,3.108,205,17.57,17.58,0.216004,0,51.1,58.03,33.57,35.22
"2016-09-21 21:20:00",254205,0.146,89,14.95,100,0,0,871.7433,0,-2.583,3.122,197,17.54,17.58,0.1705295,0,51.16,58.03,33.58,35.22
"2016-09-21 21:30:00",254206,0,0,14.95,100,0,0,871.7032,0,-1.81,3.114,214,17.52,17.56,0.2235831,0,51.16,58.09,33.58,35.24
"2016-09-21 21:40:00",254207,0.048,58.25,14.89,100,0,0,871.7032,0,-1.454,3.111,210,17.51,17.56,0.2273727,0,51.16,58.09,33.58,35.24
"2016-09-21 21:50:00",254208,0.033,12.28,14.95,100,0,0,871.7054,0,-1.502,3.111,206,17.47,17.54,0.2197936,0,51.1,58.15,33.57,35.25
"2016-09-21 22:00:00",254209,0.042,95.2,15.01,100,0,0,871.8444,0,-2.734,3.123,203,17.45,17.54,0.2235831,0,51.1,58.15,33.57,35.25
"2016-09-21 22:10:00",254210,0.074,57.91,14.98,100,0,0,871.9496,0,-2.988,3.125,210,17.45,17.54,0.216004,0,51.16,58.21,33.58,35.26
"2016-09-21 22:20:00",254211,0,0,14.99,100,0,0,871.9329,0,-2.679,3.122,220,17.45,17.55,0.2235831,0,51.1,58.21,33.57,35.26
"2016-09-21 22:30:00",254212,0.198,26.28,15,100,0,0,871.9496,0,-2.118,3.117,266,17.45,17.58,0.174319,0,51.1,58.21,33.57,35.26
"2016-09-21 22:40:00",254213,0.017,62.1,15,100,0,0,871.8907,0,-2.837,3.124,216,17.46,17.62,0.09473861,0,51.1,58.21,33.57,35.26
"2016-09-21 22:50:00",254214,0,0,14.98,100,0,0,871.8971,0,-2.632,3.122,208,17.47,17.62,0.2197936,0,51.1,58.26,33.57,35.28
"2016-09-21 23:00:00",254215,0.024,22.31,14.97,100,0,0,871.9455,0,-1.502,3.111,251,17.48,17.62,0.2008459,0,51.1,58.26,33.57,35.28
"2016-09-21 23:10:00",254216,0,0,15.02,100,0,0,871.8275,0,-0.467,3.1,296,17.47,17.62,0.07958043,0,51.1,58.26,33.57,35.28
"2016-09-21 23:20:00",254217,0,0,15.05,100,0,0,871.7286,0,-0.728,3.103,241,17.47,17.62,0.2273727,0,51.05,58.26,33.56,35.28
"2016-09-21 23:30:00",254218,0.116,66.09,15,100,0,0,871.7075,0,-0.475,3.101,250,17.47,17.62,0.1894772,0,51.05,58.26,33.56,35.28
"2016-09-21 23:40:00",254219,0,0,15.05,100,0,0,871.7032,0,-0.42,3.1,272,17.44,17.62,0.2046354,0,51.05,58.26,33.56,35.28
"2016-09-21 23:50:00",254220,0.071,4.854,14.97,100,0,0,871.697,0,-0.68,3.103,270,17.45,17.62,0.1781086,0,51.05,58.26,33.56,35.28
